[[{"header":{"parameterUnit":"m.s-1","parameterCategory":1,"la1":30.2991,"la2":30.254,"lo1":-89.0895,"lo2":-89.0444,"dy":0.0017,"dx":0.0017,"nx":28,"ny":28,"refTime":"2024-06-01T03:00:00:Z","depth":0,"parameterNumber":2,"parameterNumberName":"U-component_of_WINDS"},"data":[0,0,0,0,0,0,0,0,0,0,0,0,0,0,0,0,0,0,0,0,0,0,0,0,0,0,0,0,0,0,0,0,0,0,0,0,0,0,0,0,0,0,0,0,0,0,0,0,0,0,0,0,0,0,0,0,0,0,-1.4576,-1.4579,0,-1.4812,-1.4815,-1.4818,-1.4907,-1.4906,-1.4906,-1.4905,-1.5152,-1.5159,-1.5166,0,0,0,0,0,0,0,0,0,0,0,0,0,-1.4209,-1.4215,-1.4576,-1.4579,-1.4582,-1.4812,-1.4815,-1.4818,-1.4907,-1.4906,-1.4905,-1.4905,-1.5149,-1.5158,-1.5166,0,0,0,0,0,0,0,0,0,0,0,0,0,-1.4399,-1.4217,-1.4576,-1.4654,-1.4663,-1.4811,-1.4815,-1.4819,-1.4907,-1.4906,-1.4905,-1.4904,-1.5146,-1.5157,-1.5168,-1.5257,0,0,-1.5201,-1.5206,0,0,0,0,0,0,0,0,-1.4388,-1.4412,-1.4639,-1.4649,-1.4659,-1.4829,-1.4776,-1.4966,-1.4908,-1.4815,-1.4905,-1.4904,-1.5045,-1.5065,-1.5111,-1.5268,-1.5279,-1.5202,-1.5208,-1.5213,-1.5216,0,0,0,0,0,0,0,-1.4375,-1.4403,-1.467,-1.4643,-1.4655,-1.4679,-1.4705,-1.4813,-1.4934,-1.4823,-1.483,-1.4856,-1.5051,-1.5101,-1.5118,-1.5282,-1.5201,-1.5211,-1.5218,-1.5222,-1.5526,-1.5528,0,0,0,0,0,0,-1.4348,-1.4391,-1.4662,-1.4677,-1.4518,-1.4687,-1.4716,-1.4776,-1.4933,-1.4955,-1.4857,-1.486,-1.5083,-1.5105,-1.5127,-1.5242,-1.5213,-1.5223,-1.5229,-1.5525,-1.5527,-1.5528,0,0,0,0,0,0,-1.4339,-1.4371,-1.4653,-1.4536,-1.4574,-1.4694,-1.4761,-1.4781,-1.4831,-1.4958,-1.4981,-1.4885,-1.5083,-1.5112,-1.5224,-1.5252,-1.5228,-1.5238,-1.5523,-1.5525,-1.5528,-1.5473,0,0,0,0,0,0,-1.4328,-1.4367,-1.4401,-1.4536,-1.4579,-1.4743,-1.4763,-1.4786,-1.4849,-1.4855,-1.4991,-1.5013,-1.5084,-1.5207,-1.5235,-1.5267,-1.5246,-1.5521,-1.5524,-1.5527,-1.5473,-1.5473,-1.5473,0,0,0,0,0,-1.4315,-1.4377,-1.4402,-1.4434,-1.4623,-1.4745,-1.477,-1.485,-1.4851,-1.4886,-1.4969,-1.5008,-1.5245,-1.5218,-1.525,-1.5285,-1.5519,-1.5523,-1.5527,-1.5472,-1.5473,-1.5473,0,0,0,0,0,0,-1.4243,-1.4396,-1.4425,-1.4532,-1.4625,-1.476,-1.4807,-1.4847,-1.4943,-1.4944,-1.5041,-1.5071,-1.5175,-1.5242,-1.5209,-1.5381,-1.5385,-1.5395,-1.5333,-1.5335,-1.5335,-1.5316,-1.5255,0,0,0,0,0,-1.4239,-1.4323,-1.4453,-1.4535,-1.458,-1.4685,-1.4741,-1.4794,-1.4895,-1.4935,-1.5025,-1.5123,-1.5219,-1.5281,-1.5377,-1.5483,-1.5515,-1.5524,-1.5524,-1.5524,-1.5531,-1.5594,-1.56,-1.554,-1.554,-1.554,0,0,-1.4233,-1.4327,-1.4374,-1.4523,-1.4601,-1.4687,-1.4717,-1.4808,-1.4874,-1.4949,-1.506,-1.513,-1.5246,-1.5355,-1.5409,-1.5414,-1.5555,-1.5528,-1.5527,-1.5535,-1.5598,-1.5604,-1.5609,-1.5542,-1.5542,-1.5541,0,0,-1.4265,-1.4344,-1.4421,-1.4499,-1.4616,-1.4686,-1.4705,-1.4834,-1.4883,-1.4996,-1.5055,-1.5136,-1.53,-1.538,-1.5442,-1.5507,-1.5548,-1.5536,-1.5538,-1.5598,-1.5603,-1.5607,-1.5631,-1.5638,-1.5543,-1.5543,-1.5543,0,-1.4243,-1.4374,-1.4456,-1.4544,-1.4608,-1.468,-1.476,-1.4832,-1.4975,-1.5019,-1.5023,-1.5231,-1.5314,-1.5444,-1.546,-1.5508,-1.5534,-1.552,-1.5595,-1.56,-1.5606,-1.563,-1.5639,-1.5541,-1.5541,-1.5541,-1.5542,0,-1.4341,-1.4431,-1.448,-1.4615,-1.4686,-1.4769,-1.4866,-1.4928,-1.4976,-1.5046,-1.5162,-1.5264,-1.5382,-1.5417,-1.5465,-1.5555,-1.5555,-1.5576,-1.5582,-1.5608,-1.5632,-1.5642,-1.5538,-1.5539,-1.5539,-1.554,0,0,-1.4334,-1.4514,-1.453,-1.4593,-1.4728,-1.4801,-1.4889,-1.5003,-1.5055,-1.5152,-1.5229,-1.5367,-1.5388,-1.5458,-1.5516,-1.5569,-1.5615,-1.5584,-1.5589,-1.5587,-1.5722,-1.5705,-1.5715,-1.5643,-1.5645,-1.5647,-1.5713,0,-1.4384,-1.4542,-1.4619,-1.4744,-1.483,-1.49,-1.4977,-1.507,-1.5138,-1.5223,-1.53,-1.5396,-1.5415,-1.5459,-1.5514,-1.5598,-1.5644,-1.5594,-1.5718,-1.5721,-1.5686,-1.5727,-1.571,-1.5766,-1.5723,-1.5724,-1.5726,0,-1.4464,-1.4559,-1.4691,-1.4818,-1.4857,-1.4924,-1.5036,-1.5116,-1.5223,-1.527,-1.5349,-1.5406,-1.5504,-1.5503,-1.564,-1.5604,-1.566,-1.5709,-1.5713,-1.5728,-1.5724,-1.5743,-1.5786,-1.5795,-1.5741,-1.574,-1.5739,0,-1.4445,-1.4607,-1.4707,-1.4759,-1.4909,-1.4955,-1.502,-1.5127,-1.5191,-1.529,-1.5333,-1.5442,-1.5502,-1.5587,-1.5673,-1.5664,-1.5802,-1.5808,-1.5844,-1.5842,-1.587,-1.5867,-1.5922,-1.5905,-1.5905,-1.5905,-1.5905,0,-1.4494,-1.4572,-1.4701,-1.4763,-1.4854,-1.4944,-1.5033,-1.5104,-1.5198,-1.5277,-1.5345,-1.5418,-1.5527,-1.5614,-1.5682,-1.5786,-1.5812,-1.5854,-1.5871,-1.5848,-1.5842,-1.5885,-1.5883,-1.5907,-1.5907,-1.5906,-1.5906,0,-1.4488,-1.4577,-1.4692,-1.4824,-1.486,-1.4921,-1.5036,-1.51,-1.5173,-1.5272,-1.53,-1.5415,-1.5521,-1.5615,-1.5756,-1.5802,-1.5908,-1.593,-1.5871,-1.588,-1.5911,-1.5907,-1.5997,-1.6014,-1.5984,-1.5984,-1.5984,0,-1.4512,-1.4574,-1.4714,-1.477,-1.4834,-1.4924,-1.499,-1.5083,-1.5149,-1.5277,-1.5326,-1.5437,-1.553,-1.5698,-1.5795,-1.5903,-1.5928,-1.5952,-1.5945,-1.592,-1.5929,-1.5924,-1.5931,-1.5951,-1.5951,-1.5951,-1.5951,0,-1.4547,-1.4588,-1.4679,-1.4786,-1.4863,-1.4952,-1.5044,-1.5087,-1.5197,-1.5268,-1.5377,-1.5449,-1.5593,-1.5703,-1.5823,-1.5893,-1.5941,-1.5953,-1.5967,-1.5943,-1.5907,-1.5928,-1.587,-1.595,-1.595,-1.595,-1.595,-1.595,-1.4558,-1.4617,-1.4724,-1.4824,-1.4902,-1.4986,-1.5053,-1.5134,-1.5225,-1.5348,-1.5398,-1.5509,-1.5618,-1.5784,-1.5854,-1.5943,-1.5952,-1.5972,-1.5978,-1.5981,-1.5977,-1.5893,-1.5966,-1.5966,-1.5966,-1.5966,-1.5966,0,-1.4597,-1.4669,-1.476,-1.4885,-1.4964,-1.5001,-1.5105,-1.5169,-1.5265,-1.5362,-1.5452,-1.5578,-1.5686,-1.5792,-1.5905,-1.5957,-1.5982,-1.5984,-1.5981,-1.5996,-1.5963,-1.5939,-1.5962,-1.5962,-1.5962,-1.5962,-1.5962,-1.5962,-1.4626,-1.4727,-1.4781,-1.4924,-1.4997,-1.5104,-1.5161,-1.524,-1.5317,-1.5454,-1.5543,-1.5611,-1.5712,-1.5834,-1.5935,-1.5964,-1.6003,-1.5998,-1.6033,-1.5999,-1.5999,-1.5998,-1.5976,-1.6006,-1.6006,-1.6059,-1.606,-1.606]},{"header":{"parameterUnit":"m.s-1","parameterCategory":1,"la1":30.2991,"la2":30.254,"lo1":-89.0895,"lo2":-89.0444,"dy":0.0017,"dx":0.0017,"nx":28,"ny":28,"refTime":"2024-06-01T03:00:00:Z","depth":0,"parameterNumber":3,"parameterNumberName":"V-component_of_WINDS"},"data":[0,0,0,0,0,0,0,0,0,0,0,0,0,0,0,0,0,0,0,0,0,0,0,0,0,0,0,0,0,0,0,0,0,0,0,0,0,0,0,0,0,0,0,0,0,0,0,0,0,0,0,0,0,0,0,0,0,0,4.2338,4.2337,0,4.2307,4.2306,4.2306,4.224,4.2239,4.2237,4.2236,4.2206,4.2207,4.2207,0,0,0,0,0,0,0,0,0,0,0,0,0,4.2342,4.2342,4.2338,4.2337,4.2337,4.2307,4.2306,4.2306,4.224,4.2238,4.2237,4.2235,4.2206,4.2207,4.2207,0,0,0,0,0,0,0,0,0,0,0,0,0,4.2328,4.2342,4.2338,4.23,4.2297,4.2307,4.2306,4.2306,4.224,4.2238,4.2236,4.2235,4.2206,4.2207,4.2207,4.2252,0,0,4.221,4.221,0,0,0,0,0,0,0,0,4.2329,4.2328,4.2306,4.2303,4.2299,4.2275,4.2297,4.2288,4.2241,4.2262,4.2236,4.2234,4.2231,4.223,4.2228,4.2251,4.225,4.221,4.221,4.221,4.2211,0,0,0,0,0,0,0,4.233,4.2329,4.2325,4.2306,4.2301,4.2286,4.2282,4.2295,4.2258,4.226,4.2255,4.2252,4.2229,4.2228,4.2227,4.2249,4.221,4.221,4.2211,4.2211,4.2307,4.2309,0,0,0,0,0,0,4.2336,4.233,4.2326,4.2324,4.2309,4.2287,4.2283,4.2285,4.2258,4.2252,4.2254,4.2249,4.2228,4.2226,4.2226,4.2276,4.221,4.2211,4.2211,4.2305,4.2307,4.231,0,0,0,0,0,0,4.2337,4.2336,4.2328,4.2326,4.2324,4.2289,4.2292,4.2285,4.2284,4.2253,4.2247,4.226,4.2226,4.2225,4.2246,4.2274,4.2211,4.2212,4.2302,4.2306,4.2309,4.2377,0,0,0,0,0,0,4.2337,4.2337,4.2353,4.2327,4.2324,4.2348,4.2294,4.2286,4.2285,4.2279,4.2257,4.2251,4.2224,4.2245,4.2247,4.2274,4.2213,4.23,4.2304,4.2308,4.2372,4.2382,4.2391,0,0,0,0,0,4.2337,4.2374,4.2354,4.2354,4.2343,4.2349,4.2348,4.2315,4.2288,4.2304,4.2284,4.2252,4.2271,4.2248,4.2249,4.2277,4.2298,4.2303,4.2307,4.2368,4.238,4.2391,0,0,0,0,0,0,4.2405,4.237,4.2347,4.2377,4.2366,4.2338,4.2357,4.233,4.2327,4.2322,4.2282,4.2278,4.2304,4.2293,4.2268,4.2319,4.2279,4.2285,4.2325,4.2336,4.2346,4.2347,4.2213,0,0,0,0,0,4.2423,4.243,4.24,4.2428,4.2424,4.2392,4.2394,4.237,4.2358,4.2353,4.2335,4.2325,4.2329,4.2332,4.2334,4.2371,4.2365,4.239,4.24,4.2408,4.2412,4.2431,4.2442,4.2326,4.2325,4.2325,0,0,4.2461,4.2442,4.2449,4.2441,4.2431,4.244,4.2389,4.24,4.2407,4.2355,4.2373,4.236,4.2347,4.2376,4.2388,4.2367,4.2444,4.2414,4.242,4.2421,4.2437,4.2448,4.2458,4.2329,4.2328,4.2328,0,0,4.2533,4.2521,4.2543,4.2533,4.2518,4.2496,4.2502,4.2478,4.2467,4.2485,4.2446,4.2454,4.2461,4.2453,4.245,4.2521,4.2492,4.2523,4.2572,4.259,4.2599,4.2607,4.2632,4.2642,4.2528,4.2528,4.2529,0,4.2582,4.2593,4.2558,4.2572,4.257,4.2523,4.2546,4.2539,4.2525,4.2525,4.2502,4.251,4.2498,4.2524,4.2542,4.2541,4.2546,4.2525,4.2601,4.2608,4.2615,4.2639,4.2648,4.2532,4.2532,4.2531,4.2531,0,4.2654,4.2663,4.2683,4.267,4.267,4.2688,4.2657,4.2661,4.2638,4.2619,4.2638,4.2622,4.262,4.2625,4.2602,4.2648,4.2636,4.2608,4.2567,4.2631,4.2652,4.2661,4.2538,4.2536,4.2535,4.2534,0,0,4.2767,4.2735,4.2743,4.2736,4.2716,4.2722,4.2739,4.2737,4.2741,4.2734,4.2747,4.2755,4.2729,4.2725,4.2702,4.2718,4.2775,4.2688,4.2687,4.2704,4.2825,4.2846,4.2857,4.2756,4.2758,4.2759,4.2826,0,4.2834,4.286,4.2829,4.2862,4.2869,4.2826,4.2841,4.2831,4.2814,4.2819,4.2801,4.2806,4.2772,4.2769,4.2784,4.2765,4.2799,4.276,4.2768,4.2769,4.2772,4.2868,4.289,4.2954,4.2834,4.2836,4.2837,0,4.2916,4.2912,4.2945,4.2923,4.2925,4.2939,4.2934,4.2939,4.2927,4.2914,4.2911,4.2882,4.2898,4.2859,4.2881,4.2855,4.2857,4.2848,4.285,4.2849,4.2806,4.2869,4.2974,4.2984,4.285,4.2849,4.2848,0,4.2994,4.2997,4.3017,4.3013,4.2989,4.2999,4.299,4.2975,4.2976,4.2972,4.2972,4.2971,4.297,4.297,4.2943,4.2917,4.2968,4.2927,4.2957,4.2958,4.2969,4.2969,4.3075,4.2972,4.2972,4.2971,4.2971,0,4.3072,4.3094,4.3052,4.3064,4.3088,4.3053,4.3078,4.3064,4.3052,4.3061,4.3025,4.3035,4.2998,4.3004,4.2983,4.3004,4.3004,4.2994,4.2988,4.2997,4.2998,4.2997,4.2991,4.2974,4.2973,4.2973,4.2973,0,4.3163,4.3135,4.3154,4.313,4.3124,4.3143,4.3122,4.3132,4.3114,4.3126,4.3128,4.3099,4.3104,4.3077,4.3078,4.3064,4.3095,4.3082,4.3099,4.3095,4.3127,4.3124,4.3236,4.3249,4.3138,4.3139,4.314,0,4.3213,4.3229,4.3206,4.321,4.3202,4.3208,4.3208,4.3175,4.3177,4.3165,4.3178,4.318,4.318,4.3191,4.3171,4.3172,4.3158,4.3197,4.3158,4.3166,4.3158,4.3157,4.3159,4.3205,4.3206,4.3208,4.3208,0,4.3306,4.3292,4.3294,4.3291,4.3292,4.3289,4.3283,4.3288,4.3252,4.3257,4.3262,4.3262,4.3263,4.3266,4.3263,4.3254,4.3226,4.3221,4.3228,4.3237,4.3246,4.3241,4.3121,4.3218,4.3217,4.3217,4.3216,4.3216,4.3378,4.339,4.3376,4.3379,4.3371,4.3367,4.3376,4.3358,4.3362,4.3359,4.334,4.3349,4.3338,4.333,4.3324,4.3331,4.3313,4.3323,4.3325,4.3328,4.3334,4.3246,4.333,4.333,4.333,4.333,4.3329,0,4.3469,4.3458,4.3461,4.3453,4.3456,4.343,4.3422,4.3426,4.3434,4.3426,4.3426,4.3433,4.3436,4.3416,4.3417,4.3426,4.3414,4.3428,4.3426,4.3425,4.335,4.3344,4.3438,4.3438,4.3438,4.3438,4.3438,4.3438,4.3516,4.3535,4.352,4.3535,4.3524,4.3532,4.3529,4.3526,4.3518,4.3527,4.3529,4.3516,4.3504,4.3503,4.3505,4.3499,4.3501,4.352,4.351,4.3441,4.343,4.342,4.3413,4.3521,4.3521,4.3583,4.3584,4.3584]}]]